Weather History for Kahului, HI

Change the Weather History Date:

Thursday, November 15, 2012

  Actual Average Record
Temperature  
Mean Temperature 76 °F 76 °F  
Max Temperature 81 °F 84 °F 90 °F (1977)
Min Temperature 70 °F 68 °F 59 °F (1949)
Degree Days  
Heating Degree Days 0 0  
Month to date heating degree days 0 0  
Since 1 July heating degree days 0 0  
Cooling Degree Days 11 11  
Month to date cooling degree days 165 175  
Year to date cooling degree days 3507 3551  
Growing Degree Days 26 (Base 50)    
Moisture  
Dew Point 64 °F    
Average Humidity 68    
Maximum Humidity 84    
Minimum Humidity 51    
Precipitation  
Precipitation 0.05 in 0.07 in 1.32 in (1950)
Month to date precipitation 0.16 0.94  
Year to date precipitation 4.87 13.22  
Snow  
Snow 0.00 in - - ()
Month to date snowfall 0.0  
Since 1 July snowfall 0.0  
Since 1 September snowfall 0.0  
Snow Depth 0.00 in    
Sea Level Pressure  
Sea Level Pressure 30.12 in    
Wind  
Wind Speed 13 mph (NE)    
Max Wind Speed 24 mph    
Max Gust Speed 31 mph    
Visibility 10 miles    
Events Rain    
T = Trace of Precipitation, MM = Missing Value Source: NWS Daily Summary

Daily Weather History Graph

Daily Weather History Graph

Search for Another Location

Airport:

Trip Planner

Search our weather history database for the weather conditions in past years. The results will help you decide how hot, cold, wet, or windy it might be!

Date:

Astronomy

Nov. 15, 2012 Rise Set
Actual Time 6:36 AM HST 5:44 PM HST
Civil Twilight 6:12 AM HST 6:07 PM HST
Nautical Twilight 5:46 AM HST 6:34 PM HST
Astronomical Twilight 5:19 AM HST 7:01 PM HST
Moon 8:35 AM HST (11/15) 7:55 PM HST (11/15)
Length of Visible Light 11h 54m
Length of Day
11h 08m
Waxing Crescent, 6% of the Moon is Illuminated
Nov 15
Waxing Crescent
Nov 20
First Quarter
Nov 28
Full
Dec 6
Last Quarter
Dec 12
New

Hourly Weather History & Observations

Time (HST) Temp. Heat Index Dew Point Humidity Pressure Visibility Wind Dir Wind Speed Gust Speed Precip Events Conditions
12:54 AM 71.1 °F - 64.9 °F 81% 30.13 in 10.0 mi NE 11.5 mph - N/A   Scattered Clouds
1:54 AM 71.1 °F - 66.9 °F 87% 30.12 in 10.0 mi NE 5.8 mph - 0.02 in Rain Light Rain
2:54 AM 72.0 °F - 64.0 °F 76% 30.12 in 10.0 mi NE 9.2 mph - 0.00 in   Overcast
3:54 AM 72.0 °F - 64.9 °F 78% 30.11 in 10.0 mi ENE 10.4 mph 21.9 mph 0.00 in Rain Light Rain
4:54 AM 72.0 °F - 64.9 °F 78% 30.12 in 10.0 mi ENE 5.8 mph - 0.00 in Rain Light Rain
5:54 AM 72.0 °F - 66.9 °F 84% 30.11 in 10.0 mi ENE 11.5 mph 20.7 mph 0.00 in Rain Light Rain
6:54 AM 71.1 °F - 66.0 °F 84% 30.13 in 10.0 mi East 9.2 mph - 0.00 in Rain Light Rain
7:54 AM 72.0 °F - 66.9 °F 84% 30.15 in 10.0 mi NE 13.8 mph 19.6 mph 0.03 in Rain Light Rain
8:54 AM 73.0 °F - 66.0 °F 79% 30.17 in 10.0 mi NE 15.0 mph 20.7 mph 0.00 in   Mostly Cloudy
9:54 AM 75.9 °F - 63.0 °F 64% 30.17 in 10.0 mi ENE 17.3 mph 24.2 mph N/A   Scattered Clouds
10:54 AM 77.0 °F - 64.0 °F 64% 30.15 in 10.0 mi ENE 15.0 mph 21.9 mph N/A   Scattered Clouds
11:54 AM 78.1 °F - 64.0 °F 62% 30.13 in 10.0 mi ENE 16.1 mph 29.9 mph N/A   Scattered Clouds
12:54 PM 79.0 °F - 64.0 °F 60% 30.10 in 10.0 mi ENE 19.6 mph 26.5 mph N/A   Scattered Clouds
1:54 PM 81.0 °F 81.7 °F 61.0 °F 50% 30.08 in 10.0 mi ENE 18.4 mph 28.8 mph N/A   Mostly Cloudy
2:54 PM 79.0 °F - 62.1 °F 56% 30.07 in 10.0 mi NE 20.7 mph 31.1 mph N/A   Scattered Clouds
3:54 PM 78.1 °F - 62.1 °F 58% 30.07 in 10.0 mi ENE 20.7 mph 27.6 mph N/A   Scattered Clouds
4:54 PM 75.9 °F - 62.1 °F 62% 30.08 in 10.0 mi ENE 13.8 mph 25.3 mph N/A   Partly Cloudy
5:54 PM 73.0 °F - 62.1 °F 68% 30.09 in 10.0 mi ENE 12.7 mph 20.7 mph N/A   Scattered Clouds
6:54 PM 72.0 °F - 62.1 °F 71% 30.11 in 10.0 mi NE 11.5 mph - 0.00 in   Scattered Clouds
7:54 PM 71.1 °F - 64.0 °F 78% 30.13 in 10.0 mi NE 10.4 mph - 0.00 in   Scattered Clouds
8:54 PM 72.0 °F - 63.0 °F 73% 30.14 in 10.0 mi NE 10.4 mph - N/A   Clear
9:54 PM 73.0 °F - 63.0 °F 71% 30.13 in 10.0 mi NE 12.7 mph - N/A   Scattered Clouds
10:54 PM 73.0 °F - 63.0 °F 71% 30.13 in 10.0 mi NE 13.8 mph - N/A   Scattered Clouds
11:54 PM 71.1 °F - 64.0 °F 78% 30.11 in 10.0 mi NE 16.1 mph - 0.00 in Rain Light Rain